GFSFLT1_sfc_rhum_225.txt.gz
RH
61 74 81 52 73 84 85 89 92 93 98 98 99 99 98 98 97 95 94 94 95 96 98 97 96 96 96 93 88 86 76 79
92 95 96 92 92 89 89 89 94 96 98 99 99 99 99 98 98 96 96 97 96 97 97 97 96 97 96 95 88 79 77 70
89 96 99 92 92 89 94 93 96 93 95 98 97 98 98 96 98 97 96 96 97 98 98 98 98 99 98 99 96 96 91 90
86 89 97 99 97 97 94 95 95 94 92 92 96 95 96 97 98 98 97 96 97 97 98 98 98 99 99 99 99 99 99 97
78 83 95 99 96 95 95 95 94 94 91 89 91 90 94 86 94 96 94 95 96 95 96 98 98 99 99 99 99 99 99 99
69 73 87 81 69 73 80 86 92 93 91 84 94 76 78 77 75 71 75 88 95 96 98 98 99 99 99 99 99 99 98 98
64 59 55 58 62 65 68 74 76 77 72 80 70 68 70 67 71 81 87 85 89 95 96 97 97 97 97 98 98 97 99 96
58 54 51 51 57 58 59 61 60 62 63 66 66 65 64 68 78 84 83 83 92 95 94 96 97 96 96 96 96 97 99 97
54 49 48 48 47 47 51 52 57 59 60 58 65 64 70 70 77 76 81 87 95 95 96 96 95 94 95 96 97 98 96 98
53 48 46 45 46 49 54 54 52 57 62 65 65 67 67 72 76 79 87 94 94 95 94 94 94 94 94 94 97 96 96 97
54 50 47 44 41 42 48 46 49 58 60 61 61 63 65 72 78 80 85 96 94 93 93 93 92 92 92 93 95 94 94 96
56 50 48 42 39 42 48 49 52 54 62 62 64 67 70 75 78 85 93 95 94 93 93 93 93 93 93 93 92 93 95 96
54 51 47 42 42 44 43 48 51 53 54 62 66 74 78 86 94 96 94 95 94 93 93 94 93 93 92 92 89 92 92 91
51 48 45 40 42 44 48 50 52 58 66 73 82 91 95 97 97 96 95 94 94 94 94 94 94 92 89 89 90 89 92 92
46 47 46 42 43 45 48 56 61 66 73 82 92 96 96 96 95 95 95 94 95 94 94 92 90 87 87 90 92 92 93 91
41 42 43 42 44 49 51 59 64 72 84 90 95 96 95 95 95 95 95 94 94 93 91 92 92 90 88 93 91 92 94 93
36 35 37 39 43 49 52 61 76 82 88 94 94 94 94 94 95 95 95 95 91 92 94 94 97 90 93 91 87 95 93 94
32 34 36 39 43 47 56 69 84 86 92 93 93 93 94 94 95 96 97 97 96 97 97 97 97 97 92 88 86 97 95 96
32 35 36 40 44 50 65 78 81 86 89 89 91 92 94 95 96 96 97 97 96 98 99 100 100 97 92 89 87 95 92 90

GFSFLT1_sfc_rhum_228.txt.gz
RH
50 57 66 72 82 89 90 93 95 96 98 99 99 98 98 98 98 98 96 96 94 96 97 96 97 98 98 98 96 90 89 87
51 63 70 75 85 92 91 94 95 96 98 98 99 97 99 99 98 96 97 96 94 95 96 97 97 97 97 97 95 90 84 78
76 89 96 90 82 90 90 92 96 94 95 95 97 98 99 98 99 98 97 97 97 98 98 98 98 99 98 98 97 96 92 88
69 90 93 96 95 94 90 91 95 93 94 98 99 97 99 99 99 99 98 98 98 98 98 98 99 99 99 99 98 98 99 97
66 87 100 93 94 94 93 94 94 93 96 94 96 94 98 97 97 97 96 96 97 96 97 98 99 99 99 99 99 99 99 99
82 89 90 92 92 89 91 91 92 97 94 93 96 92 83 82 93 80 89 97 98 98 98 98 99 98 98 98 98 98 97 96
81 89 90 89 84 93 98 95 94 96 93 93 84 76 79 83 86 92 90 94 98 98 97 98 98 98 98 98 98 98 98 96
84 78 82 77 79 83 93 97 97 91 87 80 75 70 69 74 81 87 87 91 97 97 96 96 97 96 96 96 97 98 98 96
73 74 79 75 72 72 82 87 76 72 76 70 69 69 71 77 83 83 86 93 97 96 96 96 95 94 95 96 98 98 97 98
68 70 69 68 68 68 75 76 66 68 68 66 72 69 71 72 78 83 94 96 95 96 95 95 95 94 94 94 96 96 96 96
64 63 64 61 62 64 69 66 61 62 65 60 61 67 74 80 83 86 93 97 95 95 95 94 94 94 93 94 96 95 95 97
62 59 58 55 54 58 59 57 56 60 59 68 70 72 80 83 83 90 96 96 95 94 94 94 94 94 93 94 95 94 94 94
61 56 53 50 50 51 53 60 57 58 60 66 73 78 82 84 92 97 96 96 95 95 95 94 93 93 93 93 91 89 90 92
63 57 52 47 47 50 51 55 57 62 62 68 76 82 87 94 96 96 95 95 96 95 94 94 94 93 91 91 91 95 90 90
62 58 51 46 46 48 52 57 57 64 71 78 90 93 94 96 96 95 94 94 94 95 94 94 90 88 88 89 86 90 91 90
59 56 49 45 48 49 49 57 64 70 80 88 94 96 94 94 95 95 95 94 93 93 94 92 91 90 86 92 89 93 92 92
55 52 47 45 45 48 49 61 72 79 83 92 95 94 95 95 96 95 94 95 95 95 94 93 95 90 92 88 90 94 92 92
52 50 45 42 44 46 55 69 79 80 88 93 93 93 94 95 94 95 97 98 97 97 96 94 96 98 89 87 87 97 96 96
47 45 42 39 42 48 64 76 78 85 89 90 91 90 93 95 96 96 98 97 96 98 99 98 99 97 90 87 88 95 95 94

GFSFLT1_sfc_rhum_231.txt.gz
RH
24 43 48 51 64 71 76 81 87 86 88 84 85 90 87 75 73 73 78 76 76 78 74 76 76 82 87 88 86 84 83 72
18 33 45 52 64 73 77 80 82 88 92 90 86 88 85 85 81 74 76 78 75 77 77 82 89 86 86 91 83 78 76 76
23 27 50 61 65 70 73 75 78 81 83 77 72 79 74 67 75 81 80 79 79 81 82 84 90 91 92 92 90 90 88 81
26 29 49 60 59 70 70 72 74 77 77 73 82 75 86 82 86 88 86 84 85 90 93 95 95 95 95 96 96 92 94 94
23 30 41 63 64 64 66 70 73 74 77 73 80 71 82 83 95 94 93 92 96 96 96 96 96 96 95 97 96 96 96 96
27 32 40 49 61 70 72 73 75 77 79 74 80 72 77 85 88 88 91 93 94 94 91 94 94 93 95 83 83 82 79 78
32 36 46 52 74 78 77 78 79 81 83 80 78 80 79 82 84 84 85 93 92 90 90 89 86 85 84 85 87 84 82 82
39 49 67 69 79 84 85 85 89 92 91 88 81 80 79 80 77 76 84 87 82 84 81 83 81 80 79 80 81 82 83 83
44 53 60 70 79 88 89 89 91 95 93 90 80 77 76 77 78 68 73 72 76 80 78 76 76 76 78 79 80 82 82 85
52 56 64 67 78 87 90 93 92 91 85 83 83 79 75 75 75 69 67 75 76 78 77 77 76 74 74 76 78 80 80 82
56 65 69 71 72 78 88 86 86 84 79 76 75 70 69 69 68 71 75 77 76 77 77 75 75 76 75 77 80 77 76 81
58 61 65 67 70 76 84 80 78 78 74 69 70 68 64 63 64 72 76 78 76 76 76 77 78 78 77 79 79 78 78 80
56 59 64 66 69 74 76 74 74 69 64 64 64 66 63 69 72 76 80 79 79 78 78 75 76 77 76 78 78 77 79 83
58 60 60 61 66 68 68 67 63 58 52 58 65 68 68 74 80 81 80 80 82 76 76 78 77 79 80 80 78 79 83 83
56 57 58 57 62 63 62 60 54 51 53 57 67 70 74 78 81 82 82 79 79 78 78 77 78 75 76 78 81 84 83 84
55 54 55 54 58 58 55 56 54 52 57 60 70 76 79 85 84 82 82 80 78 77 78 78 78 78 73 79 83 84 85 85
56 52 49 49 52 52 51 54 56 57 62 70 75 78 86 85 84 83 81 79 77 78 80 79 82 77 91 89 84 87 86 88
56 53 49 47 49 48 52 54 60 61 68 73 77 81 81 84 81 78 82 85 82 83 82 80 86 86 89 86 88 99 99 100
52 50 47 44 43 44 51 57 60 66 72 74 80 81 82 81 80 81 86 86 86 88 87 88 96 86 90 87 88 92 97 98

GFSFLT1_sfc_rhum_234.txt.gz
RH
14 19 24 29 37 45 52 53 59 64 60 61 55 53 52 47 50 49 63 58 61 58 46 52 53 50 55 56 59 56 57 55
12 15 24 26 35 45 53 58 62 62 60 61 58 57 54 52 50 54 59 54 58 59 51 57 59 54 54 62 61 65 73 65
14 14 21 29 30 42 50 54 59 60 58 55 52 52 48 49 51 55 57 60 61 60 61 60 63 60 68 74 76 74 75 68
14 16 18 37 32 38 45 50 54 59 58 53 54 50 52 53 54 54 58 63 65 65 68 66 70 72 76 82 86 84 89 84
14 15 18 28 42 37 42 45 50 55 58 55 60 51 54 51 53 57 68 67 72 74 76 82 87 91 93 95 95 92 92 92
14 14 15 16 35 39 43 43 48 53 59 57 56 52 49 49 62 88 92 92 89 88 89 92 94 96 96 95 88 74 75 66
16 14 16 16 36 49 47 44 47 54 60 61 60 63 53 71 82 86 97 95 94 92 84 83 84 76 74 72 72 65 59 56
17 16 16 21 28 44 52 48 50 55 62 63 62 64 63 72 78 91 95 94 90 86 78 78 70 69 68 67 69 70 66 61
17 17 18 21 32 46 55 53 54 57 71 69 71 70 68 65 76 86 87 80 77 76 69 67 68 67 66 64 60 59 66 63
18 19 20 21 32 46 59 57 56 70 75 81 79 79 72 70 77 82 74 76 75 72 70 68 64 63 61 61 58 62 64 68
18 21 24 26 36 43 59 62 66 84 88 82 83 74 71 74 78 75 73 71 67 66 65 63 62 62 63 63 64 65 66 65
22 29 37 43 47 52 74 81 87 89 87 84 84 79 76 78 71 69 68 65 61 61 61 63 64 66 66 66 66 65 66 68
26 34 45 50 53 60 86 88 88 84 82 80 79 77 74 74 70 68 66 62 62 63 63 62 62 65 67 66 62 64 68 69
32 41 47 53 57 58 80 83 82 78 74 75 72 71 70 70 64 61 60 62 64 62 64 66 66 69 67 67 66 68 68 68
37 41 47 50 56 63 71 76 76 70 69 66 66 69 66 64 62 62 67 66 65 66 66 66 70 65 64 64 66 70 70 70
36 37 44 46 52 60 64 71 68 63 61 59 67 65 63 61 65 66 66 66 66 66 69 68 66 65 59 68 67 71 72 76
46 39 39 42 48 54 62 66 64 59 58 63 59 60 60 64 68 70 70 70 68 68 69 69 70 56 92 86 74 74 70 75
44 44 42 40 43 48 58 60 59 58 61 55 56 58 61 67 66 66 71 73 71 72 70 69 73 77 90 88 89 99 98 100
36 39 40 39 40 44 52 54 56 58 55 51 53 56 60 63 65 68 77 74 75 82 77 76 83 76 90 90 93 88 92 96

GFSFLT1_sfc_rhum_237.txt.gz
RH
10 11 15 19 27 37 44 49 56 64 58 57 48 48 52 48 50 46 60 58 56 55 44 48 46 44 62 61 58 65 50 60
10 11 13 17 27 34 43 47 55 58 56 56 50 51 50 48 43 47 52 57 58 62 49 50 53 57 68 69 57 60 72 63
10 11 14 20 23 34 39 43 49 52 50 48 45 46 44 42 43 48 51 60 60 59 59 53 59 55 67 66 70 74 67 73
11 11 14 19 24 33 38 42 46 52 50 44 46 45 46 45 47 48 52 56 58 59 58 58 66 68 75 72 71 71 79 78
11 12 12 22 28 30 35 40 43 50 54 48 54 46 48 45 48 48 50 56 58 59 59 64 69 68 75 77 80 83 86 87
12 11 12 12 26 36 35 36 41 47 56 53 53 51 45 43 46 54 55 60 62 59 69 71 81 88 91 92 92 89 86 90
13 12 11 12 23 40 42 39 38 45 56 60 58 60 50 46 49 54 71 81 88 89 90 89 90 90 89 88 81 85 75 60
12 12 12 13 15 37 42 40 36 44 56 62 60 61 56 54 56 82 95 97 97 96 92 91 90 85 79 71 66 64 60 57
12 12 14 14 16 36 43 37 40 42 54 62 62 61 51 48 68 89 92 93 95 90 87 83 76 70 65 64 63 58 63 60
12 12 14 16 17 26 45 43 39 42 54 63 64 63 60 68 83 88 92 88 88 88 81 74 69 65 63 60 57 57 60 63
15 14 16 16 16 20 44 45 40 42 56 62 63 67 68 79 84 90 86 88 82 79 74 68 64 61 58 55 58 59 60 61
16 15 16 17 18 20 41 48 43 47 64 71 78 82 79 85 88 85 84 80 74 70 65 62 60 58 56 58 57 59 59 59
16 16 25 26 25 28 36 50 50 67 74 83 86 86 84 87 83 80 76 72 68 63 60 56 54 56 58 60 58 57 61 62
19 25 34 38 43 41 56 71 84 87 84 86 88 88 85 85 82 73 68 65 62 58 55 56 57 61 59 59 58 59 59 60
27 31 36 38 43 44 75 84 87 86 84 86 89 88 84 84 79 74 68 63 62 59 58 58 61 59 58 57 58 62 63 62
28 31 38 39 44 48 68 83 84 81 84 84 86 83 80 77 74 71 64 63 61 60 63 63 62 58 52 57 59 64 66 70
33 29 32 36 40 47 56 76 81 79 81 82 78 78 76 74 71 68 66 64 62 64 66 64 65 48 91 82 69 69 66 69
32 34 33 32 36 41 50 63 71 77 79 74 72 70 71 69 66 63 66 68 67 68 66 65 64 74 88 86 84 87 88 96
23 29 34 34 31 36 45 53 66 73 72 69 69 69 68 66 66 64 68 69 70 73 72 69 78 75 91 94 90 88 91 93

GFSFLT1_sfc_rhum_240.txt.gz
RH
12 14 21 22 39 47 54 56 62 70 68 67 63 70 68 70 74 73 82 78 76 77 70 72 69 68 70 74 78 80 75 83
11 14 17 23 40 47 54 57 63 67 67 68 66 66 70 66 68 68 76 78 74 75 73 74 73 71 72 80 77 78 87 81
12 14 17 27 36 46 54 56 61 64 65 63 62 61 63 63 64 65 67 75 72 71 74 76 76 74 80 85 84 87 86 87
12 14 20 25 32 46 51 56 62 64 66 63 62 61 62 64 63 63 64 70 71 72 76 77 78 78 86 87 86 85 92 92
12 13 19 27 28 39 47 52 58 63 67 62 65 57 58 58 59 60 63 70 71 72 72 73 83 86 88 89 89 90 91 96
13 14 14 20 29 33 45 50 53 58 63 60 61 60 58 57 58 66 68 72 72 70 74 75 87 92 90 96 97 96 96 96
14 15 15 14 34 36 40 46 50 57 63 62 62 64 62 60 62 67 68 70 72 75 75 81 95 96 96 97 97 96 91 93
15 14 13 15 22 37 38 38 47 54 65 66 64 64 66 64 63 65 70 76 80 81 89 97 96 95 94 92 92 92 92 88
15 15 15 15 19 37 41 36 39 49 62 69 66 65 62 60 62 65 73 87 89 95 95 93 92 90 90 88 86 88 86 85
16 15 18 21 21 32 45 41 36 42 55 67 71 67 66 62 67 81 88 90 95 96 93 92 90 88 84 83 85 84 86 86
18 19 23 20 24 35 48 45 42 42 53 62 70 68 68 71 83 89 92 94 94 93 90 86 84 82 81 78 80 83 85 89
24 23 24 25 28 32 54 51 44 50 52 61 72 72 72 84 90 91 92 93 91 88 83 82 80 78 74 76 78 79 80 80
25 26 27 27 30 32 49 54 51 50 52 63 73 75 88 90 92 92 91 92 87 82 78 76 73 70 72 74 72 74 75 81
26 34 37 35 34 33 48 57 58 58 55 72 84 92 92 94 94 93 90 87 83 76 73 72 70 71 72 73 73 75 76 78
29 42 47 46 46 49 56 74 86 84 85 91 94 95 94 94 92 91 88 84 80 74 73 71 70 70 69 66 71 76 78 79
31 36 45 46 52 54 72 87 89 87 89 92 95 94 92 91 91 88 85 78 79 75 71 72 72 70 63 70 72 77 80 83
31 33 37 41 45 52 74 86 92 89 91 93 92 93 92 92 90 86 81 79 72 72 73 74 76 60 81 80 76 79 79 84
33 37 37 42 46 48 70 84 88 91 93 92 92 91 92 90 84 80 78 79 80 76 77 75 79 84 83 83 84 86 90 98
33 37 40 39 42 46 57 76 83 90 92 90 89 89 88 85 82 79 78 78 80 81 80 84 87 86 88 91 93 95 96 96

GFSFLT1_sfc_rhum_246.txt.gz
RH
42 43 44 46 56 60 64 69 72 70 78 75 75 76 75 76 80 80 84 82 82 87 75 78 80 83 86 87 84 91 88 90
28 38 42 47 54 59 64 69 73 74 72 85 78 81 79 78 80 79 82 81 84 86 81 80 84 78 83 84 86 88 93 94
19 23 39 49 55 60 62 65 72 70 68 70 75 72 80 79 84 86 82 82 85 83 84 85 85 84 84 90 90 95 95 95
16 21 39 47 53 60 61 64 73 70 66 65 83 88 94 97 94 90 88 85 86 79 91 86 89 82 84 93 94 91 96 96
14 16 36 46 50 55 58 60 72 71 69 66 70 76 81 77 81 81 84 86 84 85 88 89 85 86 91 90 96 94 94 97
14 14 19 43 46 52 58 58 66 69 71 68 68 71 70 72 75 87 87 90 87 84 86 89 90 90 90 90 96 94 94 96
16 14 14 28 45 48 57 60 60 67 70 71 71 68 70 74 78 87 86 88 89 90 87 85 83 89 90 89 92 93 95 96
17 17 17 19 42 48 56 61 62 65 71 72 73 69 69 72 77 78 86 87 91 88 88 88 85 86 89 92 94 94 96 96
19 19 20 19 32 50 57 62 63 66 72 73 73 70 70 70 74 76 77 82 87 85 88 85 84 87 94 94 96 96 96 97
16 20 22 22 35 53 59 62 62 67 74 74 74 74 71 72 73 74 76 77 84 89 88 86 90 94 94 96 96 98 98 96
24 22 24 23 28 45 59 62 64 67 72 73 74 75 73 71 74 76 80 80 83 92 90 92 95 95 96 96 98 97 92 94
26 26 29 23 27 34 59 63 64 66 71 73 76 78 77 78 76 78 81 83 86 90 89 94 95 96 97 96 93 89 90 90
21 24 26 31 30 33 39 60 65 65 70 73 78 80 80 82 82 80 83 86 86 88 91 93 94 96 95 92 91 87 86 84
19 24 29 31 33 35 37 41 52 65 70 77 81 85 84 85 85 84 87 87 90 92 92 93 96 94 93 90 86 88 87 85
45 59 63 65 59 73 58 59 52 60 79 78 80 87 86 88 85 88 90 90 93 94 93 94 93 92 89 88 90 92 90 87
42 65 79 95 96 97 95 95 90 86 79 85 83 86 85 89 91 92 92 93 93 94 97 95 92 91 90 91 91 92 92 92
48 43 60 92 98 99 99 99 99 97 98 96 92 91 92 94 94 95 95 95 97 96 96 94 94 94 100 96 91 92 91 87
55 50 43 70 94 96 98 99 98 99 99 99 99 98 96 96 95 97 98 98 98 97 96 94 95 94 96 94 94 89 89 91
66 43 35 50 84 95 98 97 97 99 99 99 99 98 98 98 98 98 98 98 97 96 95 94 94 95 95 93 93 93 92 92

GFSFLT1_sfc_rhum_249.txt.gz
RH
52 53 56 63 64 69 74 74 81 84 89 87 87 88 89 86 87 87 89 84 88 91 88 91 92 93 93 96 93 95 95 94
48 50 52 61 63 68 73 74 76 79 86 87 87 90 87 87 82 84 87 85 86 91 88 86 90 87 88 91 94 94 95 95
51 51 50 52 62 65 70 72 74 73 72 72 72 76 80 78 82 84 85 87 88 85 85 88 86 88 92 94 92 96 95 97
35 49 52 50 54 64 68 71 73 71 68 70 86 88 95 94 87 89 85 86 86 84 83 83 89 82 86 93 92 91 96 97
18 26 44 49 51 55 61 66 72 70 69 75 77 82 84 81 82 86 85 85 86 87 86 82 87 85 90 88 92 94 94 97
19 20 24 41 43 52 58 64 71 71 70 71 78 80 73 78 81 90 91 90 87 87 85 89 86 90 88 90 94 94 95 96
19 18 21 31 39 44 60 62 68 73 71 70 76 78 77 81 87 92 92 94 92 91 89 86 85 89 89 89 89 92 92 95
21 19 20 30 37 41 57 64 68 75 76 72 71 72 75 78 82 89 90 93 93 92 92 91 88 87 88 84 90 90 93 93
16 18 19 24 37 43 52 65 66 74 78 77 71 69 71 73 78 79 84 86 87 85 90 87 88 89 89 90 89 91 94 94
19 20 20 22 27 43 51 62 64 68 75 77 76 73 70 72 74 77 80 82 83 85 91 89 91 91 90 90 89 93 95 95
26 23 21 23 25 35 49 59 64 64 71 74 75 75 72 70 74 80 82 83 85 90 91 91 92 92 92 92 92 97 97 99
33 31 29 29 31 34 50 57 59 63 69 72 74 76 76 78 78 81 81 84 88 92 91 91 91 93 93 94 96 99 97 97
34 34 32 31 33 36 46 58 60 60 65 70 75 77 80 82 83 82 83 86 88 89 91 91 92 92 94 93 98 96 96 96
54 60 46 35 34 38 45 63 64 62 63 73 80 82 85 86 84 82 85 86 89 90 92 92 93 93 96 94 94 95 94 91
53 55 57 84 58 46 41 56 67 67 67 74 81 84 86 87 84 82 87 86 90 91 91 92 92 94 96 96 95 94 90 89
60 55 49 50 97 96 73 51 56 68 71 78 82 84 86 86 87 85 88 88 90 89 93 93 94 97 97 95 94 94 94 96
67 62 53 43 54 92 94 96 88 80 79 82 82 86 89 88 89 90 90 91 92 94 93 97 98 98 100 100 96 95 95 96
76 68 64 50 44 94 98 97 98 90 89 94 87 88 91 92 92 93 94 95 95 96 97 98 98 97 100 100 100 96 97 97
75 69 62 62 48 72 98 98 99 95 94 98 97 94 93 94 96 95 95 96 98 98 98 98 98 98 100 100 100 96 96 95